| time (UTC) | temp F | wind direction | speed knots | gust knots | rain 1hr in | rain 24hr in | rain mn in | humidity % | barometer mb |
| 20260506201331 | 60 | 317 | 0.0 | 0.0 | 0.00 | 0.28 | 0.28 | 82 | 1004.9 |
| 20260506200344 | 60 | 175 | 0.0 | 0.0 | 0.00 | 0.28 | 0.28 | 82 | 1005.0 |
| 20260506195350 | 60 | 94 | 0.0 | 0.0 | 0.00 | 0.28 | 0.28 | 82 | 1005.0 |
| 20260506194344 | 60 | 163 | 0.0 | 0.0 | 0.00 | 0.28 | 0.28 | 82 | 1005.0 |
| 20260506192353 | 60 | 309 | 0.0 | 0.0 | 0.00 | 0.28 | 0.28 | 82 | 1005.2 |
| 20260506191349 | 60 | 118 | 0.0 | 0.0 | 0.01 | 0.28 | 0.28 | 82 | 1005.4 |
| 20260506190324 | 60 | 157 | 0.0 | 0.0 | 0.01 | 0.28 | 0.28 | 82 | 1005.4 |
| 20260506185322 | 60 | 300 | 0.0 | 0.0 | 0.02 | 0.28 | 0.28 | 82 | 1005.4 |
| 20260506183357 | 60 | 319 | 0.0 | 0.0 | 0.05 | 0.28 | 0.28 | 82 | 1005.5 |
| 20260506182402 | 60 | 320 | 0.0 | 0.0 | 0.06 | 0.28 | 0.28 | 82 | 1005.4 |
| 20260506181400 | 60 | 320 | 0.0 | 0.0 | 0.06 | 0.27 | 0.27 | 82 | 1005.4 |
| 20260506175352 | 60 | 217 | 0.0 | 0.0 | 0.05 | 0.26 | 0.26 | 83 | 1005.6 |
| 20260506174348 | 60 | 229 | 0.0 | 0.0 | 0.05 | 0.25 | 0.25 | 83 | 1005.7 |
| 20260506173329 | 60 | 290 | 0.0 | 0.0 | 0.03 | 0.23 | 0.23 | 83 | 1005.7 |
| 20260506172321 | 60 | 234 | 0.0 | 0.0 | 0.04 | 0.22 | 0.22 | 84 | 1005.6 |
| 20260506171302 | 60 | 313 | 0.0 | 0.0 | 0.05 | 0.21 | 0.21 | 84 | 1005.6 |
| 20260506165323 | 60 | 313 | 0.0 | 0.0 | 0.08 | 0.21 | 0.21 | 83 | 1005.6 |
| 20260506164331 | 60 | 313 | 0.0 | 0.0 | 0.08 | 0.20 | 0.20 | 84 | 1005.7 |
| 20260506163332 | 60 | 313 | 0.0 | 0.0 | 0.09 | 0.20 | 0.20 | 84 | 1005.8 |
| 20260506162401 | 60 | 313 | 0.0 | 0.0 | 0.07 | 0.18 | 0.18 | 85 | 1006.0 |
| 20260506160347 | 60 | 296 | 0.0 | 0.0 | 0.04 | 0.15 | 0.14 | 85 | 1006.1 |
| 20260506155327 | 60 | 238 | 0.0 | 0.0 | 0.04 | 0.14 | 0.13 | 85 | 1006.2 |
| 20260506152332 | 60 | 150 | 0.0 | 0.0 | 0.06 | 0.12 | 0.11 | 85 | 1005.8 |
| 20260506151327 | 60 | 150 | 0.0 | 0.0 | 0.06 | 0.11 | 0.10 | 85 | 1005.9 |
| 20260506150324 | 60 | 150 | 0.0 | 0.0 | 0.07 | 0.11 | 0.10 | 86 | 1005.9 |
| 20260506145237 | 60 | 150 | 0.0 | 0.0 | 0.07 | 0.10 | 0.09 | 86 | 1005.9 |
| 20260506143245 | 61 | 150 | 0.0 | 0.0 | 0.07 | 0.08 | 0.07 | 86 | 1006.3 |
| 20260506142302 | 61 | 150 | 0.0 | 0.0 | 0.05 | 0.06 | 0.05 | 85 | 1006.4 |
| 20260506141247 | 61 | 144 | 0.0 | 0.0 | 0.04 | 0.05 | 0.04 | 85 | 1006.7 |
| 20260506140243 | 61 | 216 | 0.0 | 0.0 | 0.03 | 0.04 | 0.03 | 85 | 1006.6 |
| 20260506135305 | 62 | 216 | 0.0 | 0.0 | 0.02 | 0.03 | 0.02 | 84 | 1006.8 |
| 20260506134307 | 62 | 155 | 0.0 | 0.0 | 0.01 | 0.02 | 0.01 | 83 | 1006.9 |
| 20260506133307 | 62 | 215 | 0.0 | 0.9 | 0.00 | 0.01 | 0.00 | 81 | 1006.9 |
| 20260506132237 | 63 | 229 | 0.0 | 0.0 | 0.00 | 0.01 | 0.00 | 79 | 1006.8 |
| 20260506131231 | 64 | 174 | 0.0 | 0.0 | 0.00 | 0.01 | 0.00 | 77 | 1006.4 |
| 20260506130224 | 64 | 92 | 0.0 | 0.0 | 0.00 | 0.01 | 0.00 | 75 | 1006.2 |
| 20260506124229 | 63 | 105 | 0.0 | 0.0 | 0.00 | 0.01 | 0.00 | 70 | 1006.3 |
| 20260506122252 | 63 | 206 | 0.0 | 0.0 | 0.00 | 0.01 | 0.00 | 69 | 1006.3 |
| 20260506121258 | 63 | 206 | 0.0 | 0.0 | 0.00 | 0.01 | 0.00 | 69 | 1006.3 |
| 20260506120250 | 63 | 206 | 0.0 | 0.0 | 0.00 | 0.01 | 0.00 | 68 | 1006.3 |
| 20260506115247 | 63 | 206 | 0.0 | 0.0 | 0.00 | 0.01 | 0.00 | 68 | 1006.2 |
| 20260506114246 | 63 | 205 | 0.0 | 0.0 | 0.00 | 0.01 | 0.00 | 67 | 1006.2 |
| 20260506113230 | 63 | 205 | 0.0 | 0.0 | 0.00 | 0.01 | 0.00 | 67 | 1006.2 |
| 20260506111240 | 62 | 205 | 0.0 | 0.0 | 0.00 | 0.01 | 0.00 | 66 | 1005.8 |
| 20260506110252 | 62 | 205 | 0.0 | 0.0 | 0.00 | 0.01 | 0.00 | 66 | 1005.7 |
| 20260506104309 | 62 | 205 | 0.0 | 0.0 | 0.00 | 0.01 | 0.00 | 65 | 1005.7 |
| 20260506102324 | 62 | 205 | 0.0 | 0.0 | 0.00 | 0.01 | 0.00 | 65 | 1005.9 |
| 20260506101313 | 62 | 205 | 0.0 | 0.0 | 0.00 | 0.01 | 0.00 | 64 | 1005.9 |
| 20260506100321 | 61 | 205 | 0.0 | 0.0 | 0.00 | 0.01 | 0.00 | 64 | 1005.7 |
| 20260506095307 | 61 | 205 | 0.0 | 0.0 | 0.00 | 0.01 | 0.00 | 65 | 1005.7 |
| 20260506094319 | 61 | 205 | 0.0 | 0.0 | 0.00 | 0.01 | 0.00 | 66 | 1005.8 |
| 20260506093310 | 61 | 205 | 0.0 | 0.0 | 0.00 | 0.01 | 0.00 | 66 | 1006.0 |
| 20260506092252 | 61 | 205 | 0.0 | 0.0 | 0.00 | 0.01 | 0.00 | 66 | 1005.9 |
| 20260506091224 | 61 | 205 | 0.0 | 0.0 | 0.00 | 0.01 | 0.00 | 67 | 1006.3 |
| 20260506090201 | 61 | 205 | 0.0 | 0.0 | 0.00 | 0.01 | 0.00 | 67 | 1006.2 |
| 20260506085214 | 61 | 205 | 0.0 | 0.9 | 0.00 | 0.01 | 0.00 | 67 | 1006.1 |
| 20260506084205 | 62 | 205 | 0.0 | 0.0 | 0.00 | 0.01 | 0.00 | 66 | 1005.9 |
| 20260506080241 | 62 | 205 | 0.0 | 0.0 | 0.00 | 0.01 | 0.00 | 66 | 1006.3 |
| 20260506073247 | 61 | 205 | 0.0 | 0.0 | 0.00 | 0.01 | 0.00 | 64 | 1006.3 |
| 20260506072214 | 61 | 205 | 0.0 | 0.0 | 0.00 | 0.01 | 0.00 | 65 | 1006.4 |
| 20260506071200 | 61 | 205 | 0.0 | 0.0 | 0.00 | 0.01 | 0.00 | 67 | 1006.5 |
| 20260506060119 | 60 | 205 | 0.0 | 0.0 | 0.00 | 0.01 | 0.00 | 71 | 1007.0 |
| 20260506051152 | 62 | 205 | 0.0 | 0.0 | 0.00 | 0.01 | 0.00 | 67 | 1007.1 |
| 20260506050149 | 62 | 205 | 0.0 | 0.0 | 0.00 | 0.01 | 0.00 | 66 | 1007.2 |
| 20260506044144 | 63 | 205 | 0.0 | 0.0 | 0.00 | 0.01 | 0.00 | 65 | 1007.2 |
| 20260506043125 | 64 | 205 | 0.0 | 0.0 | 0.00 | 0.01 | 0.00 | 64 | 1007.3 |
| 20260506042126 | 64 | 205 | 0.0 | 0.0 | 0.00 | 0.01 | 0.01 | 63 | 1007.4 |
| 20260506040131 | 65 | 205 | 0.0 | 0.0 | 0.00 | 0.01 | 0.01 | 60 | 1007.2 |
| 20260506035136 | 66 | 205 | 0.0 | 0.0 | 0.00 | 0.01 | 0.01 | 59 | 1007.2 |
| 20260506034139 | 66 | 205 | 0.0 | 0.0 | 0.00 | 0.01 | 0.01 | 59 | 1007.2 |
| 20260506033121 | 67 | 205 | 0.0 | 0.0 | 0.00 | 0.01 | 0.01 | 58 | 1007.1 |
| 20260506032112 | 67 | 205 | 0.0 | 0.0 | 0.00 | 0.01 | 0.01 | 57 | 1007.1 |
| 20260506031111 | 68 | 205 | 0.0 | 0.0 | 0.00 | 0.01 | 0.01 | 56 | 1007.0 |
| 20260506030108 | 68 | 205 | 0.0 | 0.0 | 0.00 | 0.01 | 0.01 | 56 | 1007.2 |
| 20260506025118 | 69 | 205 | 0.0 | 0.0 | 0.00 | 0.01 | 0.01 | 54 | 1007.2 |
| 20260506024051 | 69 | 205 | 0.0 | 0.0 | 0.00 | 0.01 | 0.01 | 54 | 1007.2 |
| 20260506023108 | 70 | 205 | 0.0 | 0.0 | 0.00 | 0.01 | 0.01 | 53 | 1007.2 |
| 20260506022115 | 70 | 205 | 0.0 | 0.0 | 0.00 | 0.01 | 0.01 | 53 | 1007.1 |
| 20260506021110 | 70 | 205 | 0.0 | 0.0 | 0.00 | 0.01 | 0.01 | 51 | 1007.0 |
| 20260506015054 | 71 | 205 | 0.0 | 0.0 | 0.00 | 0.01 | 0.01 | 50 | 1006.7 |
| 20260506013059 | 72 | 205 | 0.0 | 0.0 | 0.00 | 0.01 | 0.01 | 50 | 1006.5 |
| 20260506011054 | 72 | 222 | 0.0 | 0.0 | 0.00 | 0.01 | 0.01 | 48 | 1006.3 |
| 20260506010047 | 73 | 222 | 0.0 | 0.0 | 0.00 | 0.01 | 0.01 | 47 | 1006.4 |
| 20260506005039 | 73 | 222 | 0.0 | 0.0 | 0.00 | 0.01 | 0.01 | 49 | 1006.3 |
| 20260506004050 | 73 | 222 | 0.0 | 0.0 | 0.00 | 0.01 | 0.01 | 48 | 1006.2 |
| 20260506003055 | 73 | 222 | 0.0 | 0.0 | 0.00 | 0.01 | 0.01 | 48 | 1006.1 |
| 20260505235107 | 73 | 222 | 0.0 | 0.0 | 0.00 | 0.01 | 0.01 | 49 | 1005.9 |
| 20260505234110 | 73 | 209 | 0.0 | 0.0 | 0.00 | 0.01 | 0.01 | 50 | 1005.9 |
| 20260505233121 | 74 | 208 | 0.0 | 0.0 | 0.00 | 0.01 | 0.01 | 50 | 1005.9 |
| 20260505232121 | 74 | 207 | 0.0 | 0.0 | 0.00 | 0.01 | 0.01 | 49 | 1005.8 |
| 20260505231128 | 74 | 207 | 0.0 | 0.0 | 0.00 | 0.01 | 0.01 | 48 | 1005.6 |
| 20260505230122 | 74 | 204 | 0.0 | 0.0 | 0.00 | 0.01 | 0.01 | 48 | 1005.5 |
| 20260505225132 | 74 | 314 | 0.0 | 0.0 | 0.00 | 0.01 | 0.01 | 48 | 1005.5 |
| 20260505224129 | 74 | 170 | 0.0 | 0.0 | 0.00 | 0.01 | 0.01 | 48 | 1005.7 |
| 20260505222112 | 75 | 117 | 0.0 | 0.0 | 0.00 | 0.01 | 0.01 | 46 | 1005.6 |